�N����,����,�~����,�C��,���x,�C��,����,���ϕ���,�ő�u�ԕ���,�ő厞����,���˗�,�I�_���x,�n�����x,�ő啗���N��,DTYPE
"17/05/30","00:10",0.0,18.4,76.0,1006.7,336.7,0.7,1.6,340.0,0.00,14.1,20.9,"00:07:12",1
"17/05/30","00:20",0.0,17.9,77.0,1006.2,281.4,0.8,1.3,310.0,0.00,13.9,21.0,"00:18:08",1
"17/05/30","00:30",0.0,17.9,78.3,1006.4,310.4,1.3,2.0,310.4,0.00,14.1,21.0,"00:29:20",1
"17/05/30","00:40",0.0,18.0,78.2,1006.2,307.9,1.5,2.5,317.3,0.00,14.2,20.7,"00:33:36",1
"17/05/30","00:50",0.0,17.8,78.7,1006.4,301.7,1.0,1.7,320.1,0.00,14.1,20.7,"00:40:40",1
"17/05/30","01:00",0.0,17.5,79.6,1006.4,300.6,0.6,1.2,333.6,0.00,14.0,20.4,"00:52:00",1
"17/05/30","01:10",0.0,17.3,81.0,1006.2,305.8,1.0,2.0,308.0,0.00,14.1,20.5,"01:08:12",1
"17/05/30","01:20",0.0,17.2,82.0,1006.0,304.5,1.0,2.0,324.5,0.00,14.1,20.2,"01:18:32",1
"17/05/30","01:30",0.0,17.2,82.7,1006.2,309.2,1.1,1.9,330.2,0.00,14.3,20.1,"01:21:04",1
"17/05/30","01:40",0.0,17.0,82.9,1006.4,295.8,1.1,1.3,324.8,0.00,14.1,20.2,"01:32:16",1
"17/05/30","01:50",0.0,17.0,83.2,1005.7,288.3,0.8,1.3,319.4,0.00,14.2,20.2,"01:41:20",1
"17/05/30","02:00",0.0,17.2,82.8,1006.2,285.0,1.0,1.3,271.8,0.00,14.3,20.1,"01:56:32",1
"17/05/30","02:10",0.0,17.1,83.4,1005.7,312.0,1.2,1.6,302.4,0.00,14.3,19.8,"02:01:44",1
"17/05/30","02:20",0.0,16.9,84.0,1005.7,310.5,1.2,2.2,310.3,0.00,14.2,19.9,"02:17:52",1
"17/05/30","02:30",0.0,17.0,83.8,1006.0,306.5,1.2,2.6,333.5,0.00,14.3,19.7,"02:21:44",1
"17/05/30","02:40",0.0,16.8,84.3,1006.0,295.2,1.0,1.8,308.9,0.00,14.2,20.0,"02:38:32",1
"17/05/30","02:50",0.0,16.7,84.5,1006.2,300.8,1.0,1.7,311.0,0.00,14.1,19.8,"02:41:44",1
"17/05/30","03:00",0.0,16.6,85.0,1006.0,305.5,1.0,1.6,335.6,0.00,14.1,19.8,"02:57:28",1
"17/05/30","03:10",0.0,16.5,85.4,1006.2,308.6,1.0,1.6,318.0,0.00,14.1,19.7,"03:03:20",1
"17/05/30","03:20",0.0,16.5,86.6,1006.0,321.1,1.1,1.4,330.3,0.00,14.3,19.8,"03:12:40",1
"17/05/30","03:30",0.0,16.2,87.0,1006.2,315.3,1.1,1.6,325.3,0.00,14.1,19.6,"03:28:56",1
"17/05/30","03:40",0.0,16.1,87.7,1006.0,287.9,1.0,1.3,308.7,0.00,14.1,19.6,"03:37:52",1
"17/05/30","03:50",0.0,16.2,87.7,1006.2,304.5,1.2,1.8,322.8,0.00,14.2,19.3,"03:40:48",1
"17/05/30","04:00",0.0,16.3,87.2,1006.2,295.5,1.1,2.0,319.8,0.00,14.2,19.3,"03:54:48",1
"17/05/30","04:10",0.0,16.2,87.3,1006.2,301.0,1.2,1.8,321.3,0.00,14.1,19.4,"04:01:36",1
"17/05/30","04:20",0.0,16.1,87.3,1006.4,289.6,1.0,1.6,334.5,0.00,14.0,19.3,"04:19:28",1
"17/05/30","04:30",0.0,16.1,87.5,1006.2,289.5,1.0,1.6,330.6,0.00,14.1,19.4,"04:29:12",1
"17/05/30","04:40",0.0,16.1,87.6,1006.4,298.6,1.2,2.2,316.4,0.00,14.1,19.2,"04:31:12",1
"17/05/30","04:50",0.0,16.0,87.5,1006.4,291.8,0.8,1.2,282.1,0.00,14.0,19.1,"04:41:04",1
"17/05/30","05:00",0.0,16.0,88.0,1006.7,294.8,1.0,1.4,309.9,0.00,14.1,19.1,"04:57:36",1
"17/05/30","05:10",0.0,16.0,88.4,1006.9,323.3,1.3,1.7,326.5,0.00,14.1,19.0,"05:05:28",1
"17/05/30","05:20",0.0,16.1,89.1,1006.9,333.9,1.2,1.8,335.9,0.00,14.3,19.0,"05:16:32",1
"17/05/30","05:30",0.0,16.0,89.5,1006.9,318.1,1.0,1.4,326.5,0.00,14.3,19.1,"05:25:52",1
"17/05/30","05:40",0.0,16.0,89.6,1007.1,304.2,0.8,1.3,324.6,0.01,14.3,19.0,"05:34:16",1
"17/05/30","05:50",0.0,16.4,89.4,1006.7,293.9,1.0,1.3,316.5,0.01,14.7,19.1,"05:40:24",1
"17/05/30","06:00",0.0,16.8,89.0,1006.9,320.3,1.0,1.4,322.6,0.02,15.0,19.1,"05:59:12",1
"17/05/30","06:10",0.0,17.4,88.5,1006.9,304.4,0.7,1.2,335.7,0.04,15.5,19.1,"06:04:32",1
"17/05/30","06:20",0.0,18.2,87.0,1007.1,305.9,0.7,1.3,327.7,0.05,16.0,19.1,"06:18:48",1
"17/05/30","06:30",0.0,19.0,84.0,1007.6,322.2,1.3,1.7,324.5,0.07,16.3,19.3,"06:29:04",1
"17/05/30","06:40",0.0,19.4,81.7,1007.4,323.1,1.3,1.7,323.5,0.07,16.2,19.2,"06:34:40",1
"17/05/30","06:50",0.0,19.3,81.0,1007.4,324.3,1.6,1.9,317.4,0.05,16.0,19.3,"06:45:36",1
"17/05/30","07:00",0.0,20.0,79.9,1007.1,302.6,0.7,1.7,329.2,0.11,16.5,19.4,"06:50:16",1
"17/05/30","07:10",0.0,21.0,76.6,1008.1,285.0,0.2,0.6,275.5,0.13,16.8,19.7,"07:00:48",1
"17/05/30","07:20",0.0,21.9,75.6,1007.4,312.5,0.2,0.6,38.1,0.15,17.4,19.6,"07:16:40",1
"17/05/30","07:30",0.0,21.7,73.3,1007.4,312.0,0.6,1.2,335.0,0.15,16.8,19.9,"07:23:28",1
"17/05/30","07:40",0.0,22.2,69.6,1007.1,191.0,0.3,1.0,173.3,0.16,16.4,20.1,"07:32:00",1
"17/05/30","07:50",0.0,22.4,70.3,1006.9,231.5,0.5,1.4,212.7,0.16,16.8,20.1,"07:40:02",1
"17/05/30","08:00",0.0,22.7,70.6,1006.7,225.4,0.7,2.2,234.4,0.21,17.1,20.5,"07:58:32",1
"17/05/30","08:10",0.0,23.1,67.8,1006.7,194.4,1.2,2.4,213.1,0.25,16.9,20.6,"08:02:08",1
"17/05/30","08:20",0.0,23.5,66.6,1006.4,200.7,1.3,3.2,193.1,0.28,17.0,20.9,"08:11:44",1
"17/05/30","08:30",0.0,24.4,64.8,1006.2,161.0,0.8,1.8,192.1,0.31,17.4,21.0,"08:22:16",1
"17/05/30","08:40",0.0,24.4,63.5,1005.7,178.9,1.3,2.1,209.1,0.32,17.1,21.3,"08:31:36",1
"17/05/30","08:50",0.0,24.5,62.9,1005.5,201.0,1.0,2.7,194.6,0.29,17.0,21.2,"08:48:32",1
"17/05/30","09:00",0.0,25.0,64.7,1005.2,179.3,1.2,2.6,193.0,0.36,17.9,21.5,"08:54:16",1
"17/05/30","09:10",0.0,25.2,63.1,1005.2,197.1,1.1,3.2,205.5,0.37,17.7,21.8,"09:00:56",1
"17/05/30","09:20",0.0,25.6,61.0,1005.2,141.1,0.8,2.4,116.0,0.41,17.6,22.2,"09:18:32",1
"17/05/30","09:30",0.0,26.1,59.4,1005.2,198.1,0.8,2.2,175.4,0.42,17.6,22.5,"09:23:04",1
"17/05/30","09:40",0.0,26.3,61.2,1005.5,141.3,1.1,2.1,138.3,0.44,18.3,22.7,"09:36:40",1
"17/05/30","09:50",0.0,26.2,60.3,1005.5,196.4,1.3,2.9,226.8,0.46,17.9,22.9,"09:49:12",1
"17/05/30","10:00",0.0,26.6,58.7,1005.5,169.9,1.2,2.6,160.1,0.47,17.9,23.0,"09:52:40",1
"17/05/30","10:10",0.0,27.3,58.5,1005.7,187.6,1.1,2.7,172.0,0.48,18.5,23.3,"10:03:44",1
"17/05/30","10:20",0.0,27.5,60.6,1006.0,204.0,1.3,3.3,186.9,0.50,19.2,23.7,"10:10:24",1
"17/05/30","10:30",0.0,27.6,58.9,1005.7,167.9,1.3,2.6,143.5,0.51,18.9,24.2,"10:25:36",1
"17/05/30","10:40",0.0,28.3,56.2,1005.7,166.9,1.2,2.8,190.3,0.52,18.8,24.4,"10:31:20",1
"17/05/30","10:50",0.0,28.8,54.8,1005.7,139.9,1.5,3.4,177.6,0.54,18.8,24.5,"10:41:04",1
"17/05/30","11:00",0.0,28.9,52.7,1005.5,112.3,1.3,2.2,69.3,0.55,18.3,24.8,"10:59:04",1
"17/05/30","11:10",0.0,29.4,54.5,1005.2,154.2,1.5,2.9,153.2,0.56,19.3,25.1,"11:09:36",1
"17/05/30","11:20",0.0,29.7,51.9,1005.2,67.9,1.1,2.7,121.9,0.56,18.8,25.3,"11:12:32",1
"17/05/30","11:30",0.0,30.1,52.9,1005.2,144.0,1.3,3.1,143.8,0.57,19.5,25.8,"11:24:48",1
"17/05/30","11:40",0.0,30.5,49.6,1005.5,156.6,1.5,2.4,181.3,0.58,18.8,26.0,"11:30:40",1
"17/05/30","11:50",0.0,30.2,50.2,1005.2,168.3,1.5,3.1,169.2,0.52,18.7,26.5,"11:49:36",1
"17/05/30","12:00",0.0,30.5,49.2,1005.0,164.7,1.8,3.7,234.8,0.58,18.7,26.5,"11:54:16",1
"17/05/30","12:10",0.0,30.7,47.8,1005.0,174.5,1.7,4.1,212.7,0.59,18.4,26.7,"12:09:20",1
"17/05/30","12:20",0.0,30.7,47.2,1004.8,136.2,1.3,3.6,186.1,0.58,18.2,26.7,"12:10:48",1
"17/05/30","12:30",0.0,31.0,47.3,1004.5,146.2,1.7,4.5,156.0,0.58,18.5,27.2,"12:23:36",1
"17/05/30","12:40",0.0,31.2,48.5,1004.8,165.8,1.8,4.7,217.4,0.57,19.1,27.2,"12:33:52",1
"17/05/30","12:50",0.0,31.2,47.7,1004.3,151.3,2.0,4.7,169.2,0.58,18.8,27.7,"12:44:08",1
"17/05/30","13:00",0.0,31.9,46.0,1004.1,149.0,2.0,4.4,197.8,0.56,18.9,27.6,"12:53:28",1
"17/05/30","13:10",0.0,32.0,46.6,1003.8,143.9,1.7,3.3,172.9,0.57,19.2,27.5,"13:06:32",1
"17/05/30","13:20",0.0,31.7,45.8,1003.8,176.7,2.1,4.5,221.1,0.55,18.6,27.2,"13:15:20",1
"17/05/30","13:30",0.0,31.8,45.6,1004.1,168.8,1.8,3.6,174.6,0.48,18.7,27.2,"13:23:52",1
"17/05/30","13:40",0.0,32.0,47.2,1004.1,158.2,1.7,3.7,159.4,0.42,19.4,27.1,"13:34:40",1
"17/05/30","13:50",0.0,31.8,46.8,1004.1,172.7,2.2,4.9,198.0,0.40,19.1,27.1,"13:47:12",1
"17/05/30","14:00",0.0,31.4,47.5,1003.8,168.3,1.8,4.4,173.3,0.33,18.9,27.0,"13:56:00",1
"17/05/30","14:10",0.0,31.8,48.1,1003.6,159.6,1.6,2.9,159.1,0.33,19.5,27.1,"14:03:28",1
"17/05/30","14:20",0.0,32.5,44.0,1003.1,160.3,1.6,4.4,174.5,0.44,18.7,27.0,"14:19:12",1
"17/05/30","14:30",0.0,32.2,44.4,1003.6,146.0,1.3,3.5,212.2,0.35,18.6,27.1,"14:20:32",1
"17/05/30","14:40",0.0,31.8,46.7,1003.4,182.5,1.3,3.2,213.3,0.28,19.0,27.1,"14:33:36",1
"17/05/30","14:50",0.0,31.8,45.8,1003.4,172.6,1.3,3.4,220.6,0.26,18.7,27.2,"14:48:56",1
"17/05/30","15:00",0.0,31.3,46.9,1003.1,161.5,1.8,3.6,171.7,0.24,18.7,27.2,"14:59:36",1
"17/05/30","15:10",0.0,31.2,46.9,1002.9,180.0,1.7,3.5,230.1,0.22,18.6,27.1,"15:09:12",1
"17/05/30","15:20",0.0,31.6,47.6,1002.4,167.3,1.1,3.5,212.2,0.22,19.2,27.2,"15:10:08",1
"17/05/30","15:30",0.0,31.6,46.2,1002.4,186.1,1.5,4.2,228.2,0.24,18.7,26.9,"15:28:32",1
"17/05/30","15:40",0.0,31.1,48.7,1002.6,174.7,2.0,3.2,225.9,0.21,19.1,26.8,"15:36:08",1
"17/05/30","15:50",0.0,31.0,47.2,1002.6,201.3,1.7,3.6,228.1,0.17,18.5,26.8,"15:46:32",1
"17/05/30","16:00",0.0,31.1,49.0,1002.4,177.4,1.5,3.2,195.3,0.17,19.2,26.9,"15:50:08",1
"17/05/30","16:10",0.0,31.5,47.1,1002.4,196.7,2.0,4.2,188.0,0.25,18.9,26.9,"16:04:32",1
"17/05/30","16:20",0.0,31.6,47.6,1002.4,178.5,2.0,3.3,209.1,0.24,19.2,26.7,"16:12:16",1
"17/05/30","16:30",0.0,31.2,48.5,1002.6,182.2,1.3,2.6,188.7,0.16,19.1,26.7,"16:22:24",1
"17/05/30","16:40",0.0,30.7,49.6,1002.4,182.7,1.6,3.2,208.9,0.12,19.0,26.7,"16:39:28",1
"17/05/30","16:50",0.0,30.7,51.7,1002.2,196.4,1.1,2.9,226.6,0.10,19.7,26.8,"16:46:08",1
"17/05/30","17:00",0.0,30.7,49.9,1001.9,240.8,1.1,2.5,226.0,0.08,19.1,26.7,"16:59:52",1
"17/05/30","17:10",0.0,30.6,51.6,1001.5,237.1,1.0,2.5,239.9,0.08,19.5,26.5,"17:03:36",1
"17/05/30","17:20",0.0,30.6,51.5,1002.2,251.6,1.2,3.2,225.4,0.10,19.5,26.5,"17:16:16",1
"17/05/30","17:30",0.0,30.7,50.6,1001.9,259.5,1.0,2.1,230.5,0.09,19.3,26.5,"17:22:40",1
"17/05/30","17:40",0.0,30.7,49.7,1001.7,264.3,0.6,2.4,250.8,0.07,19.0,26.2,"17:38:16",1
"17/05/30","17:50",0.0,30.4,49.5,1001.5,262.0,0.8,2.2,223.5,0.05,18.7,26.4,"17:42:40",1
"17/05/30","18:00",0.0,30.4,50.7,1001.7,277.2,0.8,2.6,317.1,0.07,19.1,26.2,"17:56:00",1
"17/05/30","18:10",0.0,30.4,49.6,1001.7,308.2,0.6,1.7,356.7,0.06,18.7,26.1,"18:03:04",1
"17/05/30","18:20",0.0,30.0,50.5,1001.5,306.2,0.7,2.0,353.5,0.03,18.6,25.8,"18:10:48",1
"17/05/30","18:30",0.0,29.5,51.9,1001.5,283.6,0.6,1.8,332.3,0.02,18.6,26.0,"18:23:12",1
"17/05/30","18:40",0.0,29.2,55.7,1001.2,355.8,0.6,1.2,0.1,0.00,19.5,25.7,"18:36:40",1
"17/05/30","18:50",0.0,28.7,57.4,1001.2,19.9,0.6,1.6,356.9,0.00,19.5,25.9,"18:43:12",1
"17/05/30","19:00",0.0,27.9,61.9,1001.2,338.4,0.7,1.3,347.4,0.00,20.0,25.6,"18:50:56",1
"17/05/30","19:10",0.0,27.1,63.9,1001.5,329.9,1.2,1.9,343.4,0.00,19.7,25.2,"19:09:20",1
"17/05/30","19:20",0.0,26.6,64.9,1001.5,327.7,1.5,2.2,334.8,0.00,19.5,25.2,"19:12:24",1
"17/05/30","19:30",0.0,26.2,66.5,1001.5,293.3,0.5,1.3,336.2,0.00,19.5,25.0,"19:20:08",1
"17/05/30","19:40",0.0,25.8,68.0,1001.9,299.5,0.5,1.6,317.2,0.00,19.5,25.0,"19:38:40",1
"17/05/30","19:50",0.0,25.5,69.2,1001.9,278.0,0.7,1.1,297.0,0.00,19.5,24.8,"19:40:08",1
"17/05/30","20:00",0.0,25.2,70.5,1002.2,305.2,1.0,1.7,338.8,0.00,19.5,24.6,"19:56:48",1
"17/05/30","20:10",0.0,25.0,71.1,1002.4,292.0,1.0,1.7,332.6,0.00,19.4,24.5,"20:01:04",1
"17/05/30","20:20",0.0,24.6,72.2,1002.9,295.2,0.7,1.2,332.0,0.00,19.3,24.2,"20:10:24",1
"17/05/30","20:30",0.0,24.3,73.4,1003.1,290.7,0.8,1.3,272.0,0.00,19.3,24.3,"20:29:52",1
"17/05/30","20:40",0.0,24.1,73.8,1002.9,314.7,1.1,1.7,327.4,0.00,19.2,24.2,"20:37:12",1
"17/05/30","20:50",0.0,24.1,73.9,1002.6,316.8,1.3,2.0,335.1,0.00,19.2,24.2,"20:40:02",1
"17/05/30","21:00",0.0,23.8,74.3,1002.9,320.5,1.2,2.0,334.6,0.00,19.0,24.0,"20:50:08",1
"17/05/30","21:10",0.0,23.6,75.0,1003.4,300.3,1.0,1.9,319.5,0.00,19.0,23.7,"21:04:32",1
"17/05/30","21:20",0.0,23.4,75.4,1003.6,314.2,1.5,2.4,325.5,0.00,18.8,24.0,"21:17:12",1
"17/05/30","21:30",0.0,23.3,75.5,1003.4,306.1,1.1,1.8,319.1,0.00,18.8,23.7,"21:29:12",1
"17/05/30","21:40",0.0,23.1,75.9,1003.6,293.6,1.0,1.8,332.6,0.00,18.7,23.7,"21:33:44",1
"17/05/30","21:50",0.0,23.0,77.1,1003.6,321.0,1.3,2.5,329.9,0.00,18.8,23.4,"21:45:20",1
"17/05/30","22:00",0.0,22.7,77.5,1003.4,310.5,1.2,2.2,325.7,0.00,18.6,23.3,"21:58:24",1
"17/05/30","22:10",0.0,22.5,77.5,1003.6,280.3,1.2,1.6,256.7,0.00,18.4,23.1,"22:03:28",1
"17/05/30","22:20",0.0,22.4,77.1,1003.8,293.4,1.2,1.7,290.0,0.00,18.2,23.2,"22:11:28",1
"17/05/30","22:30",0.0,22.1,77.6,1004.1,293.7,1.3,1.8,292.9,0.00,18.0,23.1,"22:22:08",1
"17/05/30","22:40",0.0,22.1,78.0,1003.6,293.8,1.3,1.7,302.1,0.00,18.1,22.9,"22:38:48",1
"17/05/30","22:50",0.0,22.0,78.3,1003.8,293.1,1.3,2.1,301.8,0.00,18.1,22.7,"22:41:44",1
"17/05/30","23:00",0.0,22.0,78.6,1003.6,310.4,1.5,2.5,320.3,0.00,18.2,22.8,"22:52:56",1
"17/05/30","23:10",0.0,21.8,79.1,1003.8,307.8,1.1,2.0,329.4,0.00,18.1,22.7,"23:08:00",1
"17/05/30","23:20",0.0,21.6,80.0,1003.6,325.2,1.3,2.0,310.9,0.00,18.0,22.7,"23:19:28",1
"17/05/30","23:30",0.0,21.4,80.3,1003.4,303.1,1.3,2.2,319.3,0.00,17.9,22.6,"23:26:00",1
"17/05/30","23:40",0.0,21.1,80.9,1003.4,287.5,1.0,1.8,307.5,0.00,17.7,22.6,"23:39:52",1
"17/05/30","23:50",0.0,21.0,81.5,1003.6,289.3,1.3,2.1,312.1,0.00,17.8,22.4,"23:40:40",1
"17/05/30","24:00",0.0,21.0,81.3,1003.4,314.9,1.5,2.4,316.0,0.00,17.7,22.3,"23:55:28",1
